FW5684 Weather Reports


Display with metric or nautical units.
time (UTC)temp
F
wind
direction
speed
MPH
gust
MPH
rain 1hr
in
rain 24hr
in
rain mn
in
humidity
%
barometer
mb
20260505124549 67 178 4.0 12.0 0.00 0.00 0.00 62 1007.7
20260505123045 64 136 4.0 10.0 0.00 0.00 0.00 66 1007.9
20260505121542 63 151 5.0 10.0 0.00 0.00 0.00 66 1008.0
20260505120101 63 168 5.0 11.0 0.00 0.00 0.00 66 1008.1
20260505114541 62 159 6.0 10.0 0.00 0.00 0.00 67 1007.7
20260505113047 61 117 3.0 10.0 0.00 0.00 0.00 68 1007.7
20260505111544 61 146 3.0 8.0 0.00 0.00 0.00 69 1007.6
20260505101551 61 158 3.0 8.0 0.00 0.00 0.00 67 1007.2
20260505100045 61 171 5.0 12.0 0.00 0.00 0.00 67 1007.1
20260505094542 61 151 3.0 7.0 0.00 0.00 0.00 67 1006.7
20260505093043 61 154 2.0 9.0 0.00 0.00 0.00 66 1006.7
20260505091540 61 154 5.0 14.0 0.00 0.00 0.00 66 1006.5
20260505090051 61 143 5.0 11.0 0.00 0.00 0.00 65 1006.4
20260505084545 62 153 5.0 10.0 0.00 0.00 0.00 64 1006.6
20260505083048 62 165 5.0 10.0 0.00 0.00 0.00 64 1006.6
20260505081544 62 140 5.0 12.0 0.00 0.00 0.00 62 1006.5
20260505080042 62 156 4.0 10.0 0.00 0.00 0.00 62 1006.4
20260505074549 62 157 6.0 11.0 0.00 0.00 0.00 63 1006.3
20260505073058 62 149 3.0 7.0 0.00 0.00 0.00 61 1006.2
20260505071552 63 168 4.0 8.0 0.00 0.00 0.00 61 1006.2
20260505070054 63 155 4.0 11.0 0.00 0.00 0.00 60 1006.3
20260505064544 63 143 5.0 9.0 0.00 0.00 0.00 60 1006.4
20260505063041 63 148 4.0 9.0 0.00 0.00 0.00 58 1006.4
20260505061548 64 158 5.0 9.0 0.00 0.00 0.00 57 1006.5
20260505060048 64 156 5.0 10.0 0.00 0.00 0.00 56 1006.6
20260505054608 64 173 3.0 6.0 0.00 0.00 0.00 56 1006.7
20260505053059 64 156 2.0 7.0 0.00 0.00 0.00 55 1006.7
20260505051541 64 173 5.0 9.0 0.00 0.00 0.00 55 1006.7
20260505041541 64 183 1.0 3.0 0.00 0.00 0.00 54 1006.7
20260505040046 64 184 1.0 6.0 0.00 0.00 0.00 53 1006.6
20260505034549 65 205 2.0 7.0 0.00 0.00 0.00 52 1006.4
20260505033048 65 174 2.0 5.0 0.00 0.00 0.00 52 1006.4
20260505031557 66 204 2.0 6.0 0.00 0.00 0.00 51 1006.2
20260505030042 66 176 2.0 7.0 0.00 0.00 0.00 50 1006.3